Cincinnati, OH

9:20 AM EST on December 06, 2019 (GMT -0500)
Cincinnati Municipal-Lunken

Weather History for KLUK - November, 2019

Change the Weather History Date:

Friday, November 15, 2019

  Actual Average Record
Temperature  
Mean Temperature 32 °F -  
Max Temperature 44 °F 53 °F 78 °F (1964)
Min Temperature 21 °F 35 °F 15 °F (2014)
Degree Days  
Heating Degree Days 32    
Moisture  
Dew Point 24 °F    
Average Humidity 81    
Maximum Humidity 96    
Minimum Humidity 47    
Precipitation  
Precipitation 0.00 in - - ()
Sea Level Pressure  
Sea Level Pressure 30.37 in    
Wind  
Wind Speed 1 mph ()    
Max Wind Speed 10 mph    
Max Gust Speed -    
Visibility 7.4 miles    
Events      
Averages and records for this station are not official NWS values.
T = Trace of Precipitation, MM = Missing Value Source: Averaged Metar Reports

Daily Weather History Graph

Daily Weather History Graph

Search for Another Location

Airport or City:

Astronomy

Nov. 15, 2019 Rise Set
Actual Time 7:20 AM EST 5:23 PM EST
Civil Twilight 6:51 AM EST 5:52 PM EST
Nautical Twilight 6:19 AM EST 6:24 PM EST
Astronomical Twilight 5:48 AM EST 6:56 PM EST
Moon 7:59 PM EST (11/15) 10:15 AM EST (11/15)
Length of Visible Light 11h 00m
Length of Day
10h 02m
Waning Gibbous, 90% of the Moon is Illuminated
Nov 15
Waning Gibbous
Nov 19
Last Quarter
Nov 26
New
Dec 4
First Quarter
Dec 12
Full

Hourly Weather History & Observations

Time (EST) Temp. Windchill Dew Point Humidity Pressure Visibility Wind Dir Wind Speed Gust Speed Precip Events Conditions
12:53 AM 27.0 °F - 25.0 °F 92% 30.35 in 10.0 mi Calm Calm - N/A   Clear
1:53 AM 26.1 °F - 24.1 °F 92% 30.35 in 8.0 mi Calm Calm - N/A   Clear
2:53 AM 24.1 °F - 21.9 °F 91% 30.35 in 7.0 mi Calm Calm - N/A   Clear
2:56 AM 23.0 °F - 21.9 °F 96% 30.33 in 1.5 mi Calm Calm - N/A   Clear
3:04 AM 23.0 °F - 21.9 °F 96% 30.33 in 0.8 mi Calm Calm - N/A   Clear
3:08 AM 24.1 °F - 23.0 °F 96% 30.34 in 2.0 mi Calm Calm - N/A   Clear
3:15 AM 24.1 °F - 23.0 °F 96% 30.34 in 4.0 mi Calm Calm - N/A   Clear
3:53 AM 21.9 °F 17.2 °F 21.0 °F 96% 30.36 in 7.0 mi NE 3.5 mph - N/A   Clear
4:53 AM 23.0 °F - 21.0 °F 92% 30.38 in 7.0 mi Calm Calm - N/A   Clear
5:53 AM 21.9 °F - 19.9 °F 92% 30.40 in 8.0 mi Calm Calm - N/A   Clear
6:53 AM 23.0 °F - 21.0 °F 92% 30.40 in 5.0 mi Calm Calm - N/A   Clear
7:53 AM 21.9 °F - 21.0 °F 96% 30.40 in 7.0 mi Calm Calm - N/A   Clear
8:53 AM 27.0 °F - 26.1 °F 96% 30.41 in 7.0 mi Calm Calm - N/A   Clear
9:53 AM 30.9 °F 22.2 °F 25.0 °F 79% 30.41 in 8.0 mi NNW 10.4 mph - N/A   Scattered Clouds
10:53 AM 33.1 °F 28.7 °F 25.0 °F 72% 30.41 in 8.0 mi WNW 4.6 mph - N/A   Scattered Clouds
11:53 AM 36.0 °F 32.1 °F 25.0 °F 64% 30.39 in 10.0 mi NNE 4.6 mph - N/A   Scattered Clouds
12:53 PM 39.0 °F 34.8 °F 24.1 °F 55% 30.37 in 10.0 mi WNW 5.8 mph - N/A   Clear
1:53 PM 42.1 °F 36.6 °F 24.1 °F 49% 30.35 in 10.0 mi North 9.2 mph - N/A   Clear
2:53 PM 44.1 °F 40.1 °F 25.0 °F 47% 30.35 in 10.0 mi NNE 6.9 mph - N/A   Clear
3:53 PM 44.1 °F 41.5 °F 25.0 °F 47% 30.35 in 10.0 mi North 4.6 mph - N/A   Clear
4:53 PM 42.1 °F 38.4 °F 26.1 °F 53% 30.35 in 10.0 mi North 5.8 mph - N/A   Clear
5:53 PM 36.0 °F - 27.0 °F 70% 30.35 in 10.0 mi Calm Calm - N/A   Clear
6:53 PM 32.0 °F 28.7 °F 26.1 °F 79% 30.36 in 10.0 mi NE 3.5 mph - N/A   Clear
7:53 PM 30.0 °F - 26.1 °F 85% 30.36 in 9.0 mi Calm Calm - N/A   Clear
8:53 PM 28.0 °F - 25.0 °F 88% 30.37 in 7.0 mi Calm Calm - N/A   Clear
9:53 PM 28.0 °F - 26.1 °F 92% 30.38 in 7.0 mi Calm Calm - N/A   Clear
10:53 PM 27.0 °F - 24.1 °F 89% 30.40 in 7.0 mi Calm Calm - N/A   Clear
11:53 PM 28.9 °F 23.9 °F 24.1 °F 82% 30.40 in 7.0 mi NE 4.6 mph - N/A   Clear